Location: *
(51.8167°N, 12.5000°E)
Time: 02:25:53
(UTC+00:00)

NOSS 3-3 (C) - Pass Details

Date: 16 September 2019
Orbit: 849 x 1364 km, 63.4° (Epoch: 08 October)

Event Time Altitude Azimuth Distance (km) Brightness Sun altitude
Rises 17:50:10 0° 198° (SSW) 3,464 7.0 -5.0°
Reaches altitude 10° 17:52:38 10° 192° (SSW) 2,571 6.2 -5.3°
Maximum altitude 17:58:16 45° 121° (ESE) 1,294 4.3 -6.2°
Drops below altitude 10° 18:04:33 10° 51° (NE) 2,874 6.1 -7.1°
Sets 18:07:27 0° 46° (NE) 3,916 6.8 -7.6°
